DW6440 Weather Reports


Display with metric or nautical units.
time (UTC)temp
F
wind
direction
speed
MPH
gust
MPH
rain 1hr
in
rain 24hr
in
rain mn
in
humidity
%
barometer
mb
20260830235920 77 165 0.0 0.0 0.00 0.00 0.00 88 1018.4
20260830235424 77 165 0.0 0.0 0.00 0.00 0.00 88 1018.2
20260830234919 78 165 0.0 0.0 0.00 0.00 0.00 88 1018.4
20260830234416 78 165 0.0 0.0 0.00 0.00 0.00 88 1018.4
20260830233913 78 165 0.0 1.0 0.00 0.00 0.00 88 1018.2
20260830233410 78 165 0.0 1.0 0.00 0.00 0.00 88 1018.3
20260830232909 78 165 0.0 0.0 0.00 0.00 0.00 87 1018.4
20260830232409 78 165 0.0 0.0 0.00 0.00 0.00 87 1018.5
20260830231908 78 165 0.0 0.0 0.00 0.00 0.00 87 1018.6
20260830231406 78 165 0.0 0.0 0.00 0.00 0.00 86 1018.6
20260830230904 78 165 0.0 1.0 0.00 0.00 0.00 86 1018.5
20260830230417 79 165 0.0 1.0 0.00 0.00 0.00 86 1018.5
20260830225903 79 165 0.0 0.0 0.00 0.00 0.00 85 1018.5
20260830225401 79 165 0.0 0.0 0.00 0.00 0.00 85 1018.4
20260830224900 79 165 0.0 2.0 0.00 0.00 0.00 86 1018.3
20260830224359 79 165 1.0 4.0 0.00 0.00 0.00 85 1018.3
20260830223855 79 165 1.0 4.0 0.00 0.00 0.00 84 1018.3
20260830223356 80 165 1.0 4.0 0.00 0.00 0.00 84 1018.3
20260830222856 80 165 1.0 6.0 0.00 0.00 0.00 82 1018.3
20260830222355 81 165 1.0 6.0 0.00 0.00 0.00 82 1018.2
20260830221856 81 177 1.0 4.0 0.00 0.00 0.00 82 1018.2
20260830221358 81 184 1.0 5.0 0.00 0.00 0.00 82 1018.3
20260830220855 81 184 2.0 5.0 0.00 0.00 0.00 81 1018.4
20260830220624 82 178 2.0 4.0 0.00 0.00 0.00 81 1018.3
20260830215854 82 180 2.0 5.0 0.00 0.00 0.00 80 1018.3
20260830215625 82 198 2.0 5.0 0.00 0.00 0.00 80 1018.3
20260830214854 83 203 3.0 7.0 0.00 0.00 0.00 79 1018.3
20260830214358 83 202 2.0 7.0 0.00 0.00 0.00 78 1018.3
20260830213854 83 169 3.0 6.0 0.00 0.00 0.00 77 1018.2
20260830213356 82 220 3.0 8.0 0.00 0.00 0.00 78 1018.2
20260830212854 81 209 3.0 8.0 0.00 0.00 0.00 78 1018.2
20260830212353 82 215 2.0 8.0 0.00 0.00 0.00 78 1018.2
20260830212118 82 207 2.0 4.0 0.00 0.00 0.00 78 1018.1
20260830211620 81 206 2.0 4.0 0.00 0.00 0.00 78 1018.2
20260830211340 81 205 3.0 8.0 0.00 0.00 0.00 78 1018.3
20260830210344 82 205 4.0 9.0 0.00 0.00 0.00 77 1018.3
20260830205845 82 275 4.0 9.0 0.00 0.00 0.00 76 1018.3
20260830205342 82 181 4.0 9.0 0.00 0.00 0.00 74 1018.3
20260830204842 83 233 2.0 8.0 0.00 0.00 0.00 75 1018.3
20260830204342 83 264 3.0 9.0 0.00 0.00 0.00 74 1018.4
20260830203846 83 252 4.0 9.0 0.00 0.00 0.00 74 1018.4
20260830203832 83 215 3.0 9.0 0.00 0.00 0.00 75 1018.4
20260830202841 82 229 4.0 8.0 0.00 0.00 0.00 78 1018.3
20260830202602 82 192 5.0 10.0 0.00 0.00 0.00 76 1018.3
20260830201840 82 205 5.0 10.0 0.00 0.00 0.00 75 1018.3
20260830201338 82 210 4.0 10.0 0.00 0.00 0.00 78 1018.3
20260830200835 82 191 3.0 10.0 0.00 0.00 0.00 77 1018.4
20260830200557 82 199 3.0 8.0 0.00 0.00 0.00 78 1018.4
20260830195837 82 165 4.0 8.0 0.00 0.00 0.00 78 1018.5
20260830195334 82 260 5.0 12.0 0.00 0.00 0.00 78 1018.8
20260830194834 82 217 5.0 12.0 0.00 0.00 0.00 77 1019.0
20260830194336 82 211 4.0 10.0 0.00 0.00 0.00 77 1019.0
20260830193837 82 217 4.0 11.0 0.00 0.00 0.00 78 1019.1
20260830193337 82 211 5.0 11.0 0.00 0.00 0.00 77 1019.1
20260830192834 82 250 6.0 11.0 0.00 0.00 0.00 78 1019.2
20260830192602 82 221 5.0 12.0 0.00 0.00 0.00 76 1019.2
20260830191835 81 253 5.0 12.0 0.00 0.00 0.00 81 1019.2
20260830191337 81 244 4.0 11.0 0.00 0.00 0.00 79 1019.4
20260830190834 80 223 4.0 9.0 0.00 0.00 0.00 81 1019.5
20260830190334 80 256 5.0 11.0 0.00 0.00 0.00 80 1019.6
20260830185335 81 213 4.0 10.0 0.00 0.00 0.00 79 1019.7
20260830185100 81 244 5.0 12.0 0.00 0.00 0.00 78 1019.8
20260830184334 80 180 5.0 12.0 0.00 0.00 0.00 80 1020.0
20260830183835 81 171 5.0 14.0 0.00 0.00 0.00 81 1020.0
20260830183555 79 213 5.0 13.0 0.00 0.00 0.00 81 1020.0
20260830183432 80 198 6.0 14.0 0.00 0.00 0.00 80 1020.1
20260830182337 80 200 4.0 9.0 0.00 0.00 0.00 80 1020.1
20260830182055 80 219 5.0 9.0 0.00 0.00 0.00 80 1020.0
20260830181333 81 178 4.0 9.0 0.00 0.00 0.00 79 1020.0
20260830180840 81 221 3.0 9.0 0.00 0.00 0.00 80 1020.0
20260830180553 80 200 3.0 8.0 0.00 0.00 0.00 79 1020.1
20260830175835 80 206 3.0 8.0 0.00 0.00 0.00 80 1020.0
20260830175332 80 219 3.0 7.0 0.00 0.00 0.00 81 1020.0
20260830174832 80 194 3.0 9.0 0.00 0.00 0.00 80 1020.1
20260830174549 80 196 3.0 9.0 0.00 0.00 0.00 79 1020.3
20260830173825 81 203 2.0 8.0 0.00 0.00 0.00 79 1020.3
20260830173325 80 215 3.0 6.0 0.00 0.00 0.00 79 1020.2
20260830173042 81 188 3.0 6.0 0.00 0.00 0.00 79 1020.3
20260830172327 80 217 4.0 10.0 0.00 0.00 0.00 81 1020.4
20260830171826 79 205 4.0 10.0 0.00 0.00 0.00 80 1020.5
20260830171551 79 216 3.0 8.0 0.00 0.00 0.00 79 1020.6
20260830170824 79 240 3.0 8.0 0.00 0.00 0.00 81 1020.5
20260830170325 80 230 4.0 10.0 0.00 0.00 0.00 79 1020.6
20260830170108 80 247 4.0 10.0 0.00 0.00 0.00 80 1020.7
20260830165325 79 211 3.0 7.0 0.00 0.00 0.00 81 1020.8
20260830165056 78 211 2.0 7.0 0.00 0.00 0.00 83 1020.8
20260830164806 78 252 2.0 7.0 0.00 0.00 0.00 83 1020.9
20260830163825 78 223 2.0 8.0 0.00 0.00 0.00 82 1020.8
20260830163324 78 252 2.0 8.0 0.00 0.00 0.00 82 1020.9
20260830162825 78 236 2.0 8.0 0.00 0.00 0.00 83 1020.9
20260830162815 78 220 3.0 8.0 0.00 0.00 0.00 83 1021.0
20260830161829 78 220 3.0 8.0 0.00 0.00 0.00 82 1020.9
20260830161332 78 192 3.0 7.0 0.00 0.00 0.00 81 1020.9
20260830160823 78 219 3.0 8.0 0.00 0.00 0.00 81 1021.0
20260830160319 78 225 3.0 8.0 0.00 0.00 0.00 82 1021.1
20260830155818 78 248 2.0 8.0 0.00 0.00 0.00 83 1021.1
20260830155320 77 200 3.0 8.0 0.00 0.00 0.00 84 1021.1
20260830154814 77 216 3.0 8.0 0.00 0.00 0.00 84 1021.3
20260830154315 77 227 2.0 8.0 0.00 0.00 0.00 83 1021.4
20260830154040 77 198 2.0 7.0 0.00 0.00 0.00 84 1021.5
20260830153316 76 236 2.0 7.0 0.00 0.00 0.00 86 1021.6
20260830153033 76 194 1.0 6.0 0.00 0.00 0.00 85 1021.6
20260830152315 76 236 1.0 6.0 0.00 0.00 0.00 86 1021.6
20260830152300 76 227 1.0 6.0 0.00 0.00 0.00 85 1021.6
20260830151314 76 250 1.0 7.0 0.00 0.00 0.00 85 1021.6
20260830150815 76 213 2.0 7.0 0.00 0.00 0.00 86 1021.5
20260830150326 75 205 3.0 12.0 0.00 0.00 0.00 85 1021.5
20260830145850 75 215 4.0 10.0 0.00 0.00 0.00 85 1021.5
20260830145830 75 219 4.0 12.0 0.00 0.00 0.00 86 1021.5
20260830145608 76 233 3.0 9.0 0.00 0.00 0.00 85 1021.4
20260830144315 76 250 3.0 7.0 0.00 0.00 0.00 86 1021.4
20260830143812 76 196 3.0 8.0 0.00 0.00 0.00 86 1021.3
20260830143306 75 197 3.0 8.0 0.00 0.00 0.00 87 1021.4
20260830142804 75 217 2.0 8.0 0.00 0.00 0.00 87 1021.3
20260830142306 75 252 2.0 7.0 0.00 0.00 0.00 88 1021.4
20260830141805 74 168 2.0 4.0 0.00 0.00 0.00 89 1021.4
20260830141304 74 201 2.0 6.0 0.00 0.00 0.00 89 1021.4
20260830140808 73 223 2.0 7.0 0.00 0.00 0.00 89 1021.5
20260830140307 73 219 3.0 7.0 0.00 0.00 0.00 89 1021.7
20260830135809 73 209 3.0 12.0 0.00 0.00 0.00 90 1021.9
20260830135306 73 211 3.0 12.0 0.00 0.00 0.00 90 1021.9
20260830134802 72 223 2.0 7.0 0.00 0.00 0.00 91 1021.9
20260830134301 72 198 3.0 7.0 0.00 0.00 0.00 91 1022.0
20260830133800 72 198 2.0 7.0 0.00 0.00 0.00 91 1022.1
20260830133255 71 192 2.0 6.0 0.00 0.00 0.00 91 1022.0
20260830132757 71 188 2.0 4.0 0.00 0.00 0.00 91 1022.0
20260830132257 71 186 1.0 5.0 0.00 0.00 0.00 92 1022.0
20260830131756 70 193 1.0 6.0 0.00 0.00 0.00 91 1022.0
20260830131255 70 215 1.0 6.0 0.00 0.00 0.00 92 1022.1
20260830130754 69 163 2.0 6.0 0.00 0.00 0.00 92 1022.3
20260830130304 69 163 1.0 6.0 0.00 0.00 0.00 92 1022.4
20260830125750 69 161 1.0 5.0 0.00 0.00 0.00 92 1022.4
20260830125513 69 160 1.0 5.0 0.00 0.00 0.00 92 1022.4
20260830124750 68 173 1.0 3.0 0.00 0.00 0.00 92 1022.5
20260830124248 68 173 1.0 3.0 0.00 0.00 0.00 92 1022.4
20260830124238 67 209 0.0 2.0 0.00 0.00 0.00 92 1022.5
20260830123247 66 209 0.0 0.0 0.00 0.00 0.00 92 1022.6
20260830122746 66 209 0.0 0.0 0.00 0.00 0.00 92 1022.6
20260830122247 65 209 0.0 0.0 0.00 0.00 0.00 92 1022.6
20260830121744 65 209 0.0 0.0 0.00 0.00 0.00 92 1022.6
20260830121241 65 209 0.0 0.0 0.00 0.00 0.00 92 1022.7
20260830120743 65 209 0.0 0.0 0.00 0.00 0.00 92 1022.6
20260830120247 65 209 0.0 0.0 0.00 0.00 0.00 92 1022.6
20260830115739 64 209 0.0 0.0 0.00 0.00 0.00 92 1022.7
20260830115239 64 209 0.0 0.0 0.00 0.00 0.00 92 1022.6
20260830114740 64 209 0.0 0.0 0.00 0.00 0.00 92 1022.6
20260830114242 63 209 0.0 0.0 0.00 0.00 0.00 93 1022.6
20260830113741 63 209 0.0 0.0 0.00 0.00 0.00 92 1022.6
20260830113238 63 209 0.0 0.0 0.00 0.00 0.00 93 1022.6
20260830112734 62 209 0.0 0.0 0.00 0.00 0.00 93 1022.6
20260830112234 62 209 0.0 0.0 0.00 0.00 0.00 93 1022.6
20260830111735 62 209 0.0 0.0 0.00 0.00 0.00 93 1022.6
20260830111234 61 209 0.0 0.0 0.00 0.00 0.00 93 1022.6
20260830110733 61 209 0.0 0.0 0.00 0.00 0.00 93 1022.6
20260830110233 61 209 0.0 0.0 0.00 0.00 0.00 93 1022.6
20260830105733 61 209 0.0 0.0 0.00 0.00 0.00 93 1022.5
20260830105234 61 209 0.0 0.0 0.00 0.00 0.00 93 1022.6
20260830104733 61 209 0.0 0.0 0.00 0.00 0.00 93 1022.6
20260830104234 61 209 0.0 0.0 0.00 0.00 0.00 93 1022.5
20260830103738 60 209 0.0 0.0 0.00 0.00 0.00 93 1022.6
20260830103236 60 209 0.0 0.0 0.00 0.00 0.00 93 1022.6
20260830102732 60 209 0.0 0.0 0.00 0.00 0.00 93 1022.6
20260830102231 60 209 0.0 0.0 0.00 0.00 0.00 93 1022.6
20260830101731 60 209 0.0 0.0 0.00 0.00 0.00 93 1022.6
20260830101231 60 209 0.0 0.0 0.00 0.00 0.00 93 1022.6
20260830100742 59 209 0.0 0.0 0.00 0.00 0.00 93 1022.6
20260830100449 59 209 0.0 0.0 0.00 0.00 0.00 93 1022.6
20260830095728 59 209 0.0 0.0 0.00 0.00 0.00 93 1022.6
20260830095229 59 209 0.0 0.0 0.00 0.00 0.00 93 1022.7
20260830094728 58 209 0.0 0.0 0.00 0.00 0.00 93 1022.6
20260830094222 58 209 0.0 0.0 0.00 0.00 0.00 93 1022.6
20260830093720 58 209 0.0 0.0 0.00 0.00 0.00 93 1022.6
20260830093445 58 209 0.0 0.0 0.00 0.00 0.00 93 1022.6
20260830092719 58 209 0.0 0.0 0.00 0.00 0.00 93 1022.6
20260830092219 58 209 0.0 0.0 0.00 0.00 0.00 93 1022.6
20260830091719 58 209 0.0 0.0 0.00 0.00 0.00 93 1022.6
20260830091217 58 209 0.0 0.0 0.00 0.00 0.00 93 1022.6
20260830090717 58 209 0.0 0.0 0.00 0.00 0.00 93 1022.5
20260830090215 58 209 0.0 0.0 0.00 0.00 0.00 93 1022.6
20260830085715 58 209 0.0 0.0 0.00 0.00 0.00 93 1022.6
20260830085215 58 209 0.0 0.0 0.00 0.00 0.00 93 1022.6
20260830084715 58 209 0.0 0.0 0.00 0.00 0.00 93 1022.6
20260830084215 58 209 0.0 0.0 0.00 0.00 0.00 93 1022.5
20260830083717 58 209 0.0 0.0 0.00 0.00 0.00 93 1022.6
20260830083216 58 209 0.0 0.0 0.00 0.00 0.00 93 1022.6
20260830082715 58 209 0.0 0.0 0.00 0.00 0.00 93 1022.7
20260830082211 58 209 0.0 0.0 0.00 0.00 0.00 93 1022.7
20260830081712 58 209 0.0 0.0 0.00 0.00 0.00 93 1022.8
20260830081213 58 209 0.0 0.0 0.00 0.00 0.00 93 1022.8
20260830080713 58 209 0.0 0.0 0.00 0.00 0.00 93 1022.7
20260830080211 58 209 0.0 0.0 0.00 0.00 0.00 93 1022.8
20260830075712 58 209 0.0 0.0 0.00 0.00 0.00 93 1022.9
20260830075214 58 209 0.0 0.0 0.00 0.00 0.00 93 1023.0
20260830074712 58 209 0.0 0.0 0.00 0.00 0.00 93 1023.1
20260830074435 58 209 0.0 0.0 0.00 0.00 0.00 93 1023.2
20260830073708 58 209 0.0 0.0 0.00 0.00 0.00 93 1023.3
20260830073207 58 209 0.0 0.0 0.00 0.00 0.00 93 1023.4
20260830072924 58 209 0.0 0.0 0.00 0.00 0.00 93 1023.2
20260830072203 58 209 0.0 0.0 0.00 0.00 0.00 93 1023.2
20260830071703 58 209 0.0 0.0 0.00 0.00 0.00 93 1023.1
20260830071202 58 209 0.0 0.0 0.00 0.00 0.00 93 1023.1
20260830070657 58 209 0.0 0.0 0.00 0.00 0.00 93 1023.2
20260830070157 58 209 0.0 0.0 0.00 0.00 0.00 93 1023.2
20260830065659 58 209 0.0 0.0 0.00 0.00 0.00 93 1023.1
20260830065158 58 209 0.0 0.0 0.00 0.00 0.00 93 1023.2
20260830064922 58 209 0.0 0.0 0.00 0.00 0.00 93 1023.2
20260830064153 58 209 0.0 0.0 0.00 0.00 0.00 93 1023.2
20260830063920 58 209 0.0 0.0 0.00 0.00 0.00 93 1023.2
20260830063200 58 209 0.0 0.0 0.00 0.00 0.00 93 1023.3
20260830062656 58 209 0.0 0.0 0.00 0.00 0.00 93 1023.2
20260830062153 58 209 0.0 0.0 0.00 0.00 0.00 93 1023.4
20260830061650 58 209 0.0 0.0 0.00 0.00 0.00 93 1023.4
20260830061411 57 209 0.0 0.0 0.00 0.00 0.00 93 1023.5
20260830060649 57 209 0.0 0.0 0.00 0.00 0.00 93 1023.5
20260830060158 57 209 0.0 0.0 0.00 0.00 0.00 93 1023.5
20260830055649 57 209 0.0 0.0 0.00 0.00 0.00 93 1023.4
20260830055145 57 209 0.0 0.0 0.00 0.00 0.00 93 1023.5
20260830054645 57 209 0.0 0.0 0.00 0.00 0.00 93 1023.5
20260830054408 57 209 0.0 0.0 0.00 0.00 0.00 93 1023.5
20260830053640 57 209 0.0 0.0 0.00 0.00 0.00 93 1023.5
20260830053138 57 209 0.0 0.0 0.00 0.00 0.00 93 1023.4
20260830052641 57 209 0.0 0.0 0.00 0.00 0.00 93 1023.5
20260830052135 57 209 0.0 0.0 0.00 0.00 0.00 93 1023.4
20260830051635 57 209 0.0 0.0 0.00 0.00 0.00 93 1023.4
20260830051133 57 209 0.0 0.0 0.00 0.00 0.00 93 1023.3
20260830050634 57 209 0.0 0.0 0.00 0.00 0.00 93 1023.4
20260830050135 57 209 0.0 0.0 0.00 0.00 0.00 93 1023.4
20260830045637 57 209 0.0 0.0 0.00 0.00 0.00 93 1023.5
20260830045131 57 209 0.0 0.0 0.00 0.00 0.00 93 1023.4
20260830044628 57 209 0.0 0.0 0.00 0.00 0.00 92 1023.4
20260830044126 58 209 0.0 0.0 0.00 0.00 0.00 92 1023.4
20260830043627 58 209 0.0 0.0 0.00 0.00 0.00 92 1023.3
20260830043125 58 209 0.0 0.0 0.00 0.00 0.00 92 1023.2
20260830042626 58 209 0.0 0.0 0.00 0.00 0.00 93 1023.2
20260830042125 58 209 0.0 0.0 0.00 0.00 0.00 93 1023.1
20260830041622 58 209 0.0 0.0 0.00 0.00 0.00 92 1023.1
20260830041439 58 209 0.0 0.0 0.00 0.00 0.00 92 1023.0
20260830041416 58 209 0.0 0.0 0.00 0.00 0.00 92 1023.0
20260830040119 58 209 0.0 0.0 0.00 0.00 0.00 92 1023.0
20260830035615 58 209 0.0 0.0 0.00 0.00 0.00 92 1022.9
20260830035114 58 209 0.0 0.0 0.00 0.00 0.00 92 1022.9
20260830034614 58 209 0.0 0.0 0.00 0.00 0.00 92 1022.8
20260830034115 58 209 0.0 0.0 0.00 0.00 0.00 92 1022.8
20260830033612 58 209 0.0 0.0 0.00 0.00 0.00 92 1022.9
20260830033111 59 209 0.0 0.0 0.00 0.00 0.00 92 1022.9
20260830032610 58 209 0.0 0.0 0.00 0.00 0.00 92 1023.0
20260830032107 58 209 0.0 0.0 0.00 0.00 0.00 92 1023.0
20260830031607 59 209 0.0 0.0 0.00 0.00 0.00 92 1023.1
20260830031333 59 209 0.0 0.0 0.00 0.00 0.00 92 1023.1
20260830030604 59 209 0.0 0.0 0.00 0.00 0.00 92 1023.1
20260830030557 59 209 0.0 0.0 0.00 0.00 0.00 92 1023.1
20260830025607 59 209 0.0 0.0 0.00 0.00 0.00 92 1023.0
20260830025326 59 209 0.0 0.0 0.00 0.00 0.00 92 1023.1
20260830024558 59 209 0.0 0.0 0.00 0.00 0.00 91 1023.1
20260830024051 60 209 0.0 0.0 0.00 0.00 0.00 92 1023.0
20260830023546 60 209 0.0 0.0 0.00 0.00 0.00 91 1022.9
20260830023045 60 209 0.0 0.0 0.00 0.00 0.00 91 1022.9
20260830022545 60 209 0.0 0.0 0.00 0.00 0.00 91 1022.9
20260830022307 60 209 0.0 0.0 0.00 0.00 0.00 91 1023.0
20260830021539 60 209 0.0 0.0 0.00 0.00 0.00 91 1022.9
20260830021042 60 209 0.0 0.0 0.00 0.00 0.00 91 1022.8
20260830020539 60 209 0.0 0.0 0.00 0.00 0.00 91 1022.9
20260830020051 61 209 0.0 0.0 0.00 0.00 0.00 91 1022.9
20260830015536 61 209 0.0 0.0 0.00 0.00 0.00 91 1022.8
20260830015034 61 209 0.0 0.0 0.00 0.00 0.00 90 1022.9
20260830014536 61 209 0.0 0.0 0.00 0.00 0.00 90 1022.8
20260830014034 61 209 0.0 0.0 0.00 0.00 0.00 90 1022.9
20260830013531 61 209 0.0 0.0 0.00 0.00 0.00 90 1022.9
20260830013031 62 209 0.0 0.0 0.00 0.00 0.00 90 1022.9
20260830012530 62 209 0.0 0.0 0.00 0.00 0.00 90 1022.9
20260830012256 62 209 0.0 0.0 0.00 0.00 0.00 90 1022.8
20260830011529 62 209 0.0 0.0 0.00 0.00 0.00 90 1022.9
20260830011042 62 209 0.0 0.0 0.00 0.00 0.00 90 1022.8
20260830010528 62 209 0.0 0.0 0.00 0.00 0.00 89 1022.8
20260830010029 62 209 0.0 0.0 0.00 0.00 0.00 89 1022.8
20260830005524 63 209 0.0 0.0 0.00 0.00 0.00 89 1022.8
20260830005245 63 209 0.0 0.0 0.00 0.00 0.00 88 1022.7
20260830004741 63 209 0.0 0.0 0.00 0.00 0.00 88 1022.7
20260830004241 63 209 0.0 0.0 0.00 0.00 0.00 87 1022.7
20260830003509 64 209 0.0 0.0 0.00 0.00 0.00 86 1022.5
20260830003012 64 209 0.0 0.0 0.00 0.00 0.00 85 1022.4
20260830002954 64 209 0.0 0.0 0.00 0.00 0.00 84 1022.3
20260830002008 65 209 0.0 0.0 0.00 0.00 0.00 84 1022.3
20260830001508 65 209 0.0 0.0 0.00 0.00 0.00 83 1022.3
20260830001008 65 209 0.0 0.0 0.00 0.00 0.00 82 1022.2
20260830000522 65 209 0.0 0.0 0.00 0.00 0.00 82 1022.1
20260830000010 66 209 0.0 0.0 0.00 0.00 0.00 81 1022.1